Location: Unspecified
(41.5516°N, 88.1098°W)
Time: 18:46:55
(UTC-06:00)

Hubble Space Telescope - Visible Passes

Search period start: 16 January 2017 00:00
Search period end: 26 January 2017 00:00
Orbit: 538 x 542 km, 28.5° (Epoch: 15 January)

Date Brightness Start Highest point End Pass type
(mag) Time Alt. Az. Time Alt. Az. Time Alt. Az.
16 Jan 3.4 17:55:26 10° SSW 17:57:13 12° S 17:59:00 10° SSE visible
17 Jan 3.5 17:45:39 10° SSW 17:47:09 12° S 17:48:38 10° SSE visible
18 Jan 3.7 17:36:06 10° SSW 17:37:04 11° S 17:38:00 10° S visible
